| time (UTC) | temp F | wind direction | speed MPH | gust MPH | rain 1hr in | rain 24hr in | rain mn in | humidity % | barometer mb |
| 20260509134625 | 40 | 314 | 0.0 | 3.0 | 0.00 | 0.00 | 0.00 | 79 | 943.4 |
| 20260509133056 | 38 | 312 | 1.0 | 3.0 | 0.00 | 0.00 | 0.00 | 82 | 943.2 |
| 20260509131553 | 37 | 347 | 0.0 | 2.0 | 0.00 | 0.00 | 0.00 | 84 | 943.1 |
| 20260509130048 | 35 | 350 | 0.0 | 2.0 | 0.00 | 0.00 | 0.00 | 86 | 942.9 |
| 20260509124546 | 34 | 351 | 0.0 | 1.0 | 0.00 | 0.00 | 0.00 | 86 | 942.7 |
| 20260509123044 | 33 | 355 | 0.0 | 1.0 | 0.00 | 0.00 | 0.00 | 86 | 942.5 |
| 20260509121546 | 34 | 355 | 0.0 | 1.0 | 0.00 | 0.00 | 0.00 | 85 | 942.3 |
| 20260509120043 | 34 | 360 | 0.0 | 1.0 | 0.00 | 0.00 | 0.00 | 87 | 942.0 |
| 20260509114543 | 33 | 5 | 0.0 | 1.0 | 0.00 | 0.00 | 0.00 | 88 | 941.7 |
| 20260509113034 | 33 | 5 | 0.0 | 1.0 | 0.00 | 0.00 | 0.00 | 88 | 941.4 |
| 20260509111533 | 33 | 5 | 0.0 | 0.0 | 0.00 | 0.00 | 0.00 | 88 | 941.2 |
| 20260509110030 | 33 | 5 | 0.0 | 1.0 | 0.00 | 0.00 | 0.00 | 88 | 941.0 |
| 20260509104528 | 34 | 5 | 0.0 | 1.0 | 0.00 | 0.00 | 0.00 | 89 | 940.8 |
| 20260509103025 | 34 | 22 | 0.0 | 0.0 | 0.00 | 0.00 | 0.00 | 89 | 940.7 |
| 20260509101534 | 34 | 22 | 0.0 | 0.0 | 0.00 | 0.00 | 0.00 | 89 | 940.6 |
| 20260509100025 | 34 | 22 | 0.0 | 1.0 | 0.00 | 0.00 | 0.00 | 88 | 940.5 |
| 20260509094522 | 34 | 22 | 0.0 | 0.0 | 0.00 | 0.00 | 0.00 | 88 | 940.3 |
| 20260509093020 | 35 | 22 | 0.0 | 0.0 | 0.00 | 0.00 | 0.00 | 86 | 940.1 |
| 20260509091519 | 35 | 22 | 0.0 | 0.0 | 0.00 | 0.00 | 0.00 | 85 | 939.8 |
| 20260509090010 | 37 | 22 | 0.0 | 1.0 | 0.00 | 0.00 | 0.00 | 84 | 939.5 |
| 20260509084511 | 38 | 22 | 0.0 | 1.0 | 0.00 | 0.00 | 0.00 | 83 | 939.3 |
| 20260509083001 | 39 | 22 | 0.0 | 2.0 | 0.00 | 0.00 | 0.00 | 82 | 939.0 |
| 20260509081558 | 40 | 22 | 0.0 | 3.0 | 0.00 | 0.00 | 0.00 | 82 | 938.9 |
| 20260509080056 | 40 | 12 | 0.0 | 3.0 | 0.00 | 0.00 | 0.00 | 82 | 938.7 |
| 20260509074604 | 41 | 28 | 1.0 | 3.0 | 0.00 | 0.00 | 0.00 | 84 | 938.7 |
| 20260509073055 | 40 | 56 | 0.0 | 1.0 | 0.00 | 0.00 | 0.00 | 87 | 938.5 |
| 20260509071550 | 41 | 58 | 0.0 | 1.0 | 0.00 | 0.00 | 0.00 | 87 | 938.4 |
| 20260509070048 | 42 | 58 | 0.0 | 0.0 | 0.00 | 0.00 | 0.00 | 85 | 938.2 |
| 20260509064556 | 43 | 58 | 0.0 | 0.0 | 0.00 | 0.00 | 0.00 | 82 | 938.0 |
| 20260509063042 | 45 | 58 | 0.0 | 1.0 | 0.00 | 0.00 | 0.00 | 80 | 937.7 |
| 20260509061535 | 45 | 58 | 0.0 | 1.0 | 0.00 | 0.00 | 0.00 | 79 | 937.5 |
| 20260509060029 | 47 | 60 | 0.0 | 0.0 | 0.00 | 0.00 | 0.00 | 78 | 937.4 |
| 20260509054528 | 48 | 60 | 0.0 | 0.0 | 0.00 | 0.00 | 0.00 | 79 | 937.3 |
| 20260509053028 | 49 | 60 | 0.0 | 1.0 | 0.00 | 0.00 | 0.00 | 79 | 937.1 |
| 20260509051534 | 49 | 60 | 0.0 | 0.0 | 0.00 | 0.00 | 0.00 | 79 | 936.9 |
| 20260509050026 | 50 | 60 | 0.0 | 1.0 | 0.00 | 0.00 | 0.00 | 78 | 936.9 |
| 20260509044526 | 50 | 60 | 0.0 | 1.0 | 0.00 | 0.00 | 0.00 | 77 | 936.7 |
| 20260509043025 | 50 | 76 | 0.0 | 1.0 | 0.00 | 0.00 | 0.00 | 77 | 936.3 |
| 20260509041525 | 50 | 76 | 0.0 | 1.0 | 0.00 | 0.00 | 0.00 | 77 | 935.8 |
| 20260509040024 | 51 | 76 | 0.0 | 1.0 | 0.00 | 0.00 | 0.00 | 76 | 935.5 |
| 20260509034538 | 51 | 76 | 0.0 | 2.0 | 0.00 | 0.00 | 0.00 | 75 | 935.4 |
| 20260509033023 | 51 | 78 | 0.0 | 3.0 | 0.00 | 0.00 | 0.00 | 74 | 935.4 |
| 20260509031523 | 51 | 60 | 1.0 | 3.0 | 0.00 | 0.00 | 0.00 | 72 | 935.2 |
| 20260509030023 | 52 | 63 | 0.0 | 3.0 | 0.00 | 0.00 | 0.00 | 71 | 935.1 |
| 20260509024520 | 54 | 79 | 0.0 | 5.0 | 0.00 | 0.00 | 0.00 | 63 | 934.7 |
| 20260509023020 | 56 | 29 | 2.0 | 14.0 | 0.00 | 0.00 | 0.00 | 54 | 934.9 |
| 20260509021522 | 58 | 36 | 1.0 | 11.0 | 0.00 | 0.00 | 0.00 | 51 | 934.8 |
| 20260509020019 | 60 | 59 | 6.0 | 13.0 | 0.00 | 0.00 | 0.00 | 45 | 934.5 |
| 20260509014517 | 62 | 320 | 4.0 | 10.0 | 0.00 | 0.00 | 0.00 | 42 | 934.5 |
| 20260509013017 | 62 | 319 | 5.0 | 14.0 | 0.00 | 0.00 | 0.00 | 41 | 934.3 |
| 20260509011517 | 64 | 311 | 5.0 | 13.0 | 0.00 | 0.00 | 0.00 | 39 | 934.2 |
| 20260509010020 | 64 | 302 | 6.0 | 16.0 | 0.00 | 0.00 | 0.00 | 39 | 934.1 |
| 20260509004517 | 64 | 298 | 4.0 | 10.0 | 0.00 | 0.00 | 0.00 | 39 | 933.9 |
| 20260509003016 | 64 | 302 | 3.0 | 10.0 | 0.00 | 0.00 | 0.00 | 40 | 933.6 |
| 20260509001514 | 65 | 295 | 8.0 | 17.0 | 0.00 | 0.00 | 0.00 | 40 | 933.8 |
| 20260509000014 | 65 | 302 | 8.0 | 19.0 | 0.00 | 0.00 | 0.00 | 41 | 934.1 |
| 20260508234513 | 65 | 302 | 10.0 | 21.0 | 0.00 | 0.00 | 0.00 | 41 | 934.4 |
| 20260508233012 | 68 | 273 | 10.0 | 20.0 | 0.00 | 0.00 | 0.00 | 33 | 933.3 |
| 20260508231511 | 69 | 292 | 11.0 | 22.0 | 0.00 | 0.00 | 0.00 | 30 | 933.1 |
| 20260508230009 | 70 | 277 | 11.0 | 20.0 | 0.00 | 0.00 | 0.00 | 29 | 933.0 |
| 20260508224511 | 69 | 267 | 10.0 | 19.0 | 0.00 | 0.00 | 0.00 | 31 | 933.3 |
| 20260508223006 | 70 | 262 | 11.0 | 18.0 | 0.00 | 0.00 | 0.00 | 30 | 933.6 |
| 20260508221508 | 70 | 276 | 8.0 | 16.0 | 0.00 | 0.00 | 0.00 | 30 | 933.7 |
| 20260508220001 | 68 | 300 | 9.0 | 20.0 | 0.00 | 0.00 | 0.00 | 31 | 933.9 |
| 20260508214501 | 67 | 271 | 10.0 | 18.0 | 0.00 | 0.00 | 0.00 | 32 | 934.2 |
| 20260508213106 | 69 | 320 | 10.0 | 18.0 | 0.00 | 0.00 | 0.00 | 28 | 934.3 |
| 20260508211559 | 70 | 315 | 11.0 | 25.0 | 0.00 | 0.00 | 0.00 | 25 | 934.2 |
| 20260508210058 | 71 | 306 | 15.0 | 29.0 | 0.00 | 0.00 | 0.00 | 23 | 934.1 |
| 20260508204558 | 71 | 269 | 10.0 | 21.0 | 0.00 | 0.00 | 0.00 | 22 | 933.9 |
| 20260508203158 | 71 | 280 | 8.0 | 18.0 | 0.00 | 0.00 | 0.00 | 24 | 933.9 |
| 20260508201556 | 72 | 271 | 6.0 | 24.0 | 0.00 | 0.00 | 0.00 | 24 | 934.0 |
| 20260508200055 | 71 | 277 | 10.0 | 20.0 | 0.00 | 0.00 | 0.00 | 24 | 934.1 |
| 20260508194555 | 72 | 271 | 8.0 | 23.0 | 0.00 | 0.00 | 0.00 | 25 | 934.4 |
| 20260508193107 | 70 | 290 | 10.0 | 20.0 | 0.00 | 0.00 | 0.00 | 26 | 934.6 |
| 20260508191557 | 70 | 286 | 10.0 | 17.0 | 0.00 | 0.00 | 0.00 | 26 | 934.8 |
| 20260508190104 | 71 | 294 | 10.0 | 20.0 | 0.00 | 0.00 | 0.00 | 25 | 935.0 |
| 20260508184548 | 70 | 272 | 8.0 | 19.0 | 0.00 | 0.00 | 0.00 | 26 | 935.2 |
| 20260508183104 | 69 | 264 | 7.0 | 15.0 | 0.00 | 0.00 | 0.00 | 27 | 935.6 |
| 20260508181549 | 70 | 271 | 8.0 | 18.0 | 0.00 | 0.00 | 0.00 | 26 | 935.8 |
| 20260508180057 | 70 | 286 | 10.0 | 19.0 | 0.00 | 0.00 | 0.00 | 26 | 936.0 |
| 20260508174559 | 68 | 273 | 7.0 | 17.0 | 0.00 | 0.00 | 0.00 | 27 | 936.3 |
| 20260508173041 | 68 | 287 | 7.0 | 16.0 | 0.00 | 0.00 | 0.00 | 28 | 936.4 |
| 20260508171539 | 68 | 254 | 8.0 | 16.0 | 0.00 | 0.00 | 0.00 | 29 | 936.5 |
| 20260508170038 | 67 | 245 | 6.0 | 15.0 | 0.00 | 0.00 | 0.00 | 30 | 936.8 |
| 20260508164544 | 66 | 217 | 5.0 | 12.0 | 0.00 | 0.00 | 0.00 | 30 | 937.0 |
| 20260508163032 | 65 | 199 | 3.0 | 9.0 | 0.00 | 0.00 | 0.00 | 31 | 937.3 |
| 20260508161528 | 64 | 221 | 3.0 | 9.0 | 0.00 | 0.00 | 0.00 | 31 | 937.4 |
| 20260508160025 | 63 | 197 | 3.0 | 10.0 | 0.00 | 0.00 | 0.00 | 33 | 937.5 |
| 20260508154523 | 62 | 221 | 3.0 | 8.0 | 0.00 | 0.00 | 0.00 | 34 | 937.7 |
| 20260508153030 | 61 | 263 | 5.0 | 9.0 | 0.00 | 0.00 | 0.00 | 37 | 937.8 |
| 20260508151516 | 59 | 228 | 3.0 | 8.0 | 0.00 | 0.00 | 0.00 | 39 | 938.1 |
| 20260508150012 | 57 | 256 | 3.0 | 9.0 | 0.00 | 0.00 | 0.00 | 42 | 938.1 |
| 20260508144509 | 55 | 259 | 3.0 | 8.0 | 0.00 | 0.00 | 0.00 | 44 | 938.2 |
| 20260508143006 | 53 | 259 | 3.0 | 7.0 | 0.00 | 0.00 | 0.00 | 45 | 938.1 |
| 20260508141608 | 51 | 272 | 3.0 | 7.0 | 0.00 | 0.00 | 0.00 | 47 | 938.2 |
| 20260508140056 | 49 | 269 | 2.0 | 4.0 | 0.00 | 0.00 | 0.00 | 48 | 938.3 |